User: anonymous   Login
Location: Bakov nad Jizerou
(50.4784°N, 14.9394°E)
Time: 05:40:53
(UTC+00:00)
Language:

Cosmos 1447 Rocket - Orbit

View from above orbital plane
View from above orbital plane
View from above satellite
View from above satellite

Ground track
Ground track

The orbit data is extracted from the following two-line orbital elements,

1 13917U 83021B   21263.26970778  .00000038  00000-0  23418-4 0  9998
2 13917  82.9466 170.6239 0027509 213.8008 266.8290 13.76867787933458
Epoch (UTC): 20 September 2021 06:28:22
Eccentricity: 0.0027509
inclination: 82.9466°
perigee height: 955 km
apogee height: 995 km
right ascension of ascending node: 170.6239°
argument of perigee: 213.8008°
revolutions per day: 13.76867787
mean anomaly at epoch: 266.8290°
orbit number at epoch: 93345

The dashed part of the orbit path shows where the satellite is in the earth's shadow,  

DLR